Hourly Weather Roundup
Issued by NWS Central Illinois

Home | Current Version | Previous Version | Text Only | Print | Product List | Glossary On
Versions: 1 2 3 4 5 6 7 8 9 10 11 12 13 14 15 16 17 18 19 20 21 22 23 24 25 26 27 28 29 30 31 32 33 34 35 36 37 38 39 40 41 42 43 44 45 46 47 48 49 50
000
NZUS43 KILX 070210
HWRILX

AREA WEATHER ROUNDUP
NATIONAL WEATHER SERVICE, LINCOLN IL
900 PM CDT WED MAY 06 2015


CITY           SKY/WX    TMP DP  RH WIND       PRES   REMARKS
BLOOMINGTON    CLEAR     70  55  58 S9        30.06R
CHAMPAIGN      PTCLDY    73  49  42 S7        30.06R
DANVILLE       CLEAR     73  53  49 SE6       30.05S
DECATUR        CLEAR     73  52  47 S6        30.05R
EFFINGHAM      CLEAR     73  51  45 SE3       30.07R
FLORA          CLEAR     69  55  61 SE5       30.06S
GALESBURG      PTCLDY    64  60  87 E3        30.00R
JACKSONVILLE   CLEAR     77  53  43 SE7       30.01R
LACON          PTCLDY    73  53  48 SE8       30.00S
LAWRENCEVILLE  CLEAR     72  57  59 SE6       30.08R
LITCHFIELD     CLEAR     71  52  51 SE7       30.03S
$$


CITY           SKY/WX    TMP DP  RH WIND       PRES   REMARKS
LINCOLN        CLEAR     75  52  44 S9        30.00S
MACOMB         MOCLDY    68  62  82 E5        30.01S
MATTOON        CLEAR     72  53  51 S3        30.06R
MT CARMEL AP   CLEAR     73  48  40 SE5       30.07R
OLNEY-NOBLE AP CLEAR     68  57  68 SE3       30.07R
PARIS          PTCLDY    72  55  54 SE5       30.08R
PEORIA         CLEAR     75  52  44 S6        30.01R
PONTIAC        PTCLDY    69  60  73 SE6       30.04S
RANTOUL        MOCLDY    77  53  43 S7        30.06S
ROBINSON       CLEAR     73  54  51 S6        30.08R
SPRINGFIELD    CLEAR     75  53  46 S9        30.02R
TAYLORVILLE    CLEAR     72  54  53 S8        30.04R
$$

...REGIONAL REPORTS...


CITY           SKY/WX    TMP DP  RH WIND       PRES   REMARKS
CHICAGO O`HARE MOCLDY    60  53  77 NE7       30.06S
KANKAKEE       MOCLDY    72  59  62 CALM      30.06S
MOLINE         MOCLDY    65  60  84 SE3       29.98S
MOUNT VERNON   CLEAR    N/A N/A N/A CALM      30.06R
PITTSFIELD     CLEAR     75  51  42 SE6       30.01R
QUINCY         CLOUDY    71  59  65 SE5       29.98R
ROCKFORD       PTCLDY    70  59  68 E12       30.04R
$$


CITY           SKY/WX    TMP DP  RH WIND       PRES   REMARKS
BURLINGTON     PTCLDY    68  63  84 E5        29.97S
CEDAR RAPIDS   PTCLDY    64  61  90 SE8       29.95S
DES MOINES     MOCLDY    70  58  65 S15       29.88S
KIRKSVILLE     CLEAR     67  60  78 SE8       29.95S
OTTUMWA        MOCLDY    67  59  75 SE9       29.93R
ST LOUIS       PTCLDY    80  50  34 S10       30.02R HX  80
$$


CITY           SKY/WX    TMP DP  RH WIND       PRES   REMARKS
TERRE HAUTE    CLOUDY    76  55  48 SE5       30.08R
EVANSVILLE     CLEAR     72  58  61 CALM      30.08R
INDIANAPOLIS   PTCLDY    75  51  43 SE5       30.09R
LAFAYETTE      CLEAR     67  57  70 CALM      30.07S
MADISON        MOCLDY    68  59  73 SE12      30.01F
MILWAUKEE      FOG       45  43  93 NE6       30.10S VSB 1/8
$$




USA.gov is the U.S. government's official web portal to all federal, state and local government web resources and services.